Location: Newark
(63.1158°N, 8.1461°E)
Time: 16:45:41
(UTC+00:00)

Envisat - Pass Details

Date: 20 December 2019
Orbit: 764 x 766 km, 98.1° (Epoch: 21 January)

Event Time Altitude Azimuth Distance (km) Brightness Sun altitude
Rises 06:42:22 0° 18° (NNE) 3,250 6.2 -12.5°
Reaches altitude 10° 06:44:42 10° 20° (NNE) 2,320 5.4 -12.3°
Maximum altitude 06:49:49 79° 107° (ESE) 790 3.2 -11.8°
Drops below altitude 10° 06:54:55 10° 195° (SSW) 2,304 5.7 -11.3°
Sets 06:57:13 0° 196° (SSW) 3,226 6.4 -11.1°
